Home   Weather   Santa Clarita   Past weeks

Flag for USA Past Weather in Santa Clarita, California, USA — Yesterday and Last 2 Weeks

Now
64 °F

Sunny.


Feels Like: 64 °F
Forecast: 42 / 61 °F
Wind: 6 mph from Southeast

Location: Van Nuys Airport

Current Time: Dec 5, 2016 at 5:01:44 pm

Latest Report: Dec 5, 2016 at 3:51 pm


Visibility: 10 mi

Pressure: 29.90 "Hg

Humidity: 54%

Dew Point: 47 °F

Location of Santa ClaritaLocation

Past Weather in Santa Clarita — Graph

°F

Santa Clarita Temperature Yesterday

Maximum temperature yesterday: 75 °F (at 1:51 pm)
Minimum temperature yesterday: 44 °F (at 3:51 am)
Average temperature yesterday: 59 °F

High & Low Weather Summary for the Past Weeks

 TemperatureHumidityPressure
High77 °F (Nov 25, 1:51 pm)100% (Nov 20, 5:53 pm)30.17 "Hg (Nov 20, 5:53 pm)
Low39 °F (Nov 26, 6:51 am)7% (Nov 25, 12:51 pm)29.80 "Hg (Nov 28, 4:51 pm)
Average57 °F48%30.01 "Hg
* Reported Nov 20 3:51 pm — Dec 5 3:51 pm, Santa Clarita, Weather by CustomWeather, © 2016

Note: Actual official high and low records may vary slightly from our data, if they occured in-between our weather recording intervals... More about our weather records

Advertising

Santa Clarita Weather History for the Previous 24 Hours

Scroll right to see more
 ConditionsComfort  
Time TempWeatherWind HumidityBarometerVisibility
3:51 pm
Mon, Dec 5
64 °FSunny.6 mph54%29.90 "Hg10 mi
2:51 pm65 °FSunny.6 mph52%29.89 "Hg10 mi
1:51 pm65 °FSunny.6 mph52%29.90 "Hg10 mi
12:51 pm64 °FSunny.6 mph50%29.91 "Hg10 mi
11:51 am63 °FSunny.No wind56%29.93 "Hg10 mi
10:51 am60 °FScattered clouds.3 mph58%29.96 "Hg10 mi
9:51 am57 °FSunny.5 mph44%29.97 "Hg10 mi
7:51 am47 °FSunny.No wind61%29.96 "Hg10 mi
6:51 am43 °FSunny.No wind71%29.95 "Hg10 mi
5:51 am43 °FClear.No wind71%29.94 "Hg10 mi
4:51 am44 °FClear.3 mph68%29.93 "Hg10 mi
3:51 am45 °FClear.No wind65%29.93 "Hg10 mi
2:51 am46 °FClear.No wind66%29.93 "Hg10 mi
1:51 am46 °FClear.3 mph66%29.95 "Hg10 mi
12:51 am48 °FClear.No wind61%29.95 "Hg10 mi
11:51 pm
Sun, Dec 4
50 °FClear.No wind59%29.97 "Hg10 mi
10:51 pm52 °FClear.No wind50%29.98 "Hg10 mi
9:51 pm54 °FClear.No wind45%29.98 "Hg10 mi
8:51 pm56 °FClear.No wind39%29.97 "Hg10 mi
7:51 pm60 °FClear.No wind30%29.97 "Hg10 mi
6:51 pm62 °FClear.No wind26%29.97 "Hg10 mi
5:51 pm64 °FClear.No wind21%29.97 "Hg10 mi
Weather by CustomWeather, © 2016

See weather overviewHow to use our weather pages